Preview of NWS' New Version of Forecast
This preview is not operational and should not be used for support decisions.

Regional Weather Roundup (RWR)

Issued by National Weather Service (NWS)

                            
000
ASUS44 KLIX 210911
RWRLA 
LOUISIANA WEATHER ROUNDUP
NATIONAL WEATHER SERVICE NEW ORLEANS LA
300 AM CST MON JAN 21 2019

NOTE: "FAIR" INDICATES FEW OR NO CLOUDS BELOW 12,000 FEET WITH NO
      SIGNIFICANT WEATHER AND/OR OBSTRUCTIONS TO VISIBILITY.
      SKY/WX - SKY CONDITION AND SIGNIFICANT WEATHER.
      TMP - AIR TEMPERATURE.    DP   - DEWPOINT TEMPERATURE.
      RH  - RELATIVE HUMIDITY.  PRES - PRESSURE.
      HX  - HEAT INDEX.         WCI  - WIND CHILL INDEX.

*  THESE STATIONS ARE NOT NWS OR FAA STATIONS AND ARE NOT UNDER
   NWS QUALITY CONTROL.

LAZ040-048-061>063-065-066-069-211000-
SOUTHEAST LOUISIANA
  
CITY           SKY/WX    TMP DP  RH WIND       PRES   REMARKS
N.O. INTL ARPT FAIR      41  31  67 E6        30.33S                  
N.O. LAKEFRONT FAIR      41  29  62 E13       30.34S                  
N.O. DOWNTOWN* FAIR      40  29  64 VRB5      30.34S                  
RESERVE*       FAIR      37  29  73 NE3       30.34S                  
SLIDELL        FAIR      30  26  85 NE3       30.34S                  
BATON ROUGE    FAIR      30  26  85 NE5       30.33F WCI  25          
BOOTHVILLE     FAIR      44  34  67 NE7       30.32S                  
BOGALUSA*      FAIR      30  28  89 CALM      30.35S                  
GALLIANO*      FAIR      38  31  78 NE3       30.33S                  
NEW ROADS*     FAIR      32  25  74 CALM      30.34S                  
GONZALES*      FAIR      34  28  77 NE3       30.33S                  
HAMMOND*       FAIR      30  28  93 CALM      30.34F                  
HOUMA*         FAIR      35  32  89 NE3       30.33S                  
PORT FOURCHON* SUNNY     45  37  76 NE9       30.32S                  

$$

LAZ041-044-053-054-211000-
SOUTHWEST LOUISIANA
  
CITY           SKY/WX    TMP DP  RH WIND       PRES   REMARKS
LAKE CHARLES   FAIR      36  33  89 E7        30.31F WCI  30          
LAFAYETTE      FAIR      36  32  85 MISG      30.32S                  
PATTERSON      FAIR      36  32  85 E6        30.33F WCI  31          
SALT POINT       N/A    N/A N/A N/A CALM      30.31F                  
NEW IBERIA     FAIR      34  27  75 E3        30.32F                  
CHENAULT AIRPK FAIR      34  32  94 E5        30.31F WCI  30          

$$

LAZ027-028-211000-
CENTRAL LOUISIANA
  
CITY           SKY/WX    TMP DP  RH WIND       PRES   REMARKS
FORT POLK      FAIR      34  27  75 E6        30.30R WCI  29          
ALEXANDRIA INT FAIR      32  28  85 E3        30.30F                  
ALEXANDRIA     FAIR      28  27  96 CALM      30.31F                  

$$

LAZ001-002-211000-
NORTHWEST LOUISIANA
  
CITY           SKY/WX    TMP DP  RH WIND       PRES   REMARKS
SHREVEPORT       N/A     31  28  89 CALM      30.30S                  
BARKSDALE AFB  FAIR      31  26  81 SE3       30.31R                  
DTN SHREVEPORT CLOUDY    33  27  78 SE5       30.31S WCI  29          

$$

LAZ014-016-211000-
NORTHEAST LOUISIANA
  
CITY           SKY/WX    TMP DP  RH WIND       PRES   REMARKS
MONROE         FAIR      31  27  85 CALM      30.35S                  
TALLULAH       FAIR      32  25  75 E6        30.35S WCI  26          

$$